EW2544 Weather Reports


Display with metric or nautical units.
time (UTC)temp
F
wind
direction
speed
MPH
gust
MPH
rain 1hr
in
rain 24hr
in
rain mn
in
humidity
%
barometer
mb
20260510005016 56 107 10.0 16.0 0.00 0.09 0.03 91 1011.5
20260510004016 56 103 11.0 15.0 0.00 0.09 0.03 91 1011.4
20260510003016 56 105 10.0 16.0 0.00 0.09 0.03 91 1011.5
20260510002036 56 115 11.0 17.0 0.00 0.09 0.03 91 1011.5
20260510001056 56 111 11.0 15.0 0.00 0.09 0.03 91 1011.3
20260510000016 56 102 12.0 19.0 0.00 0.09 0.03 92 1011.2
20260509235036 56 106 12.0 18.0 0.01 0.09 0.03 92 1011.4
20260509234016 56 111 12.0 18.0 0.02 0.09 0.03 91 1011.4
20260509233016 57 109 15.0 23.0 0.02 0.09 0.03 91 1011.3
20260509232016 57 107 13.0 23.0 0.02 0.09 0.03 91 1011.2
20260509231015 57 100 16.0 29.0 0.02 0.09 0.03 91 1010.7
20260509230015 57 102 23.0 31.0 0.03 0.09 0.03 91 1010.5
20260509225016 57 102 23.0 30.0 0.04 0.09 0.02 90 1010.8
20260509224015 57 101 21.0 31.0 0.04 0.08 0.02 90 1011.1
20260509223015 57 91 17.0 27.0 0.05 0.08 0.02 90 1011.5
20260509222015 58 96 18.0 29.0 0.06 0.08 0.02 90 1011.7
20260509221057 58 100 17.0 25.0 0.06 0.07 0.01 91 1011.9
20260509220015 58 98 18.0 28.0 0.06 0.06 0.06 91 1011.9
20260509215016 58 106 20.0 27.0 0.05 0.05 0.05 91 1011.8
20260509214016 58 107 22.0 32.0 0.04 0.04 0.04 90 1011.5
20260509213036 58 107 21.0 31.0 0.03 0.03 0.03 90 1011.1
20260509212016 58 103 19.0 26.0 0.02 0.02 0.02 90 1011.1
20260509211016 59 104 17.0 24.0 0.01 0.01 0.01 89 1011.2
20260509210016 59 98 15.0 24.0 0.00 0.00 0.00 88 1011.3
20260509205016 60 96 16.0 24.0 0.00 0.00 0.00 86 1011.4
20260509204016 60 94 15.0 25.0 0.00 0.00 0.00 84 1011.4
20260509203016 60 89 15.0 22.0 0.00 0.00 0.00 83 1011.3
20260509202016 60 94 13.0 20.0 0.00 0.00 0.00 82 1011.2
20260509201016 61 91 13.0 23.0 0.00 0.00 0.00 81 1011.1
20260509200016 61 94 15.0 25.0 0.00 0.00 0.00 80 1010.9
20260509195016 61 84 15.0 22.0 0.00 0.00 0.00 80 1010.7
20260509194036 61 93 14.0 22.0 0.00 0.00 0.00 79 1010.6
20260509193016 61 91 15.0 26.0 0.00 0.00 0.00 78 1010.5
20260509192016 61 104 18.0 26.0 0.00 0.00 0.00 77 1010.2
20260509191036 61 91 18.0 26.0 0.00 0.00 0.00 74 1009.9
20260509190016 61 83 16.0 28.0 0.00 0.00 0.00 72 1009.9
20260509185016 62 87 15.0 25.0 0.00 0.00 0.00 70 1009.8
20260509184016 62 93 19.0 32.0 0.00 0.00 0.00 69 1009.7
20260509183016 62 83 18.0 28.0 0.00 0.00 0.00 67 1009.8
20260509182016 62 84 15.0 32.0 0.00 0.00 0.00 65 1009.9
20260509181057 62 89 15.0 25.0 0.00 0.00 0.00 65 1009.9
20260509180016 63 84 15.0 23.0 0.00 0.00 0.00 63 1010.1
20260509175015 63 86 17.0 25.0 0.00 0.00 0.00 63 1010.0
20260509174036 63 97 17.0 27.0 0.00 0.00 0.00 62 1009.9
20260509173015 63 94 18.0 27.0 0.00 0.00 0.00 62 1009.9
20260509172016 63 98 19.0 31.0 0.00 0.00 0.00 62 1010.0
20260509171016 63 100 18.0 28.0 0.00 0.00 0.00 61 1009.9
20260509170016 63 102 19.0 31.0 0.00 0.00 0.00 63 1009.9
20260509165015 63 102 20.0 32.0 0.00 0.00 0.00 62 1009.8
20260509164015 63 101 17.0 25.0 0.00 0.00 0.00 64 1009.8
20260509163035 64 101 18.0 29.0 0.00 0.00 0.00 64 1009.6
20260509162036 64 100 17.0 27.0 0.00 0.00 0.00 65 1009.6
20260509161016 64 93 18.0 27.0 0.00 0.00 0.00 67 1009.6
20260509160015 64 93 18.0 32.0 0.00 0.00 0.00 71 1009.6
20260509155036 64 101 20.0 30.0 0.00 0.00 0.00 71 1009.7
20260509154015 64 94 20.0 35.0 0.00 0.00 0.00 71 1009.8
20260509153016 64 97 21.0 31.0 0.00 0.00 0.00 73 1010.0
20260509152016 64 97 20.0 30.0 0.00 0.00 0.00 74 1010.2
20260509151015 64 98 18.0 30.0 0.00 0.00 0.00 74 1010.3
20260509150025 64 98 21.0 33.0 0.00 0.00 0.00 74 1010.4
20260509145015 64 98 19.0 33.0 0.00 0.00 0.00 75 1010.5
20260509144015 64 94 21.0 31.0 0.00 0.00 0.00 75 1010.6
20260509143015 65 103 19.0 30.0 0.00 0.00 0.00 75 1010.7
20260509142015 65 102 21.0 31.0 0.00 0.00 0.00 74 1010.8
20260509141015 65 106 19.0 32.0 0.00 0.00 0.00 73 1010.9
20260509140015 65 100 24.0 36.0 0.00 0.00 0.00 71 1010.9
20260509135015 65 104 24.0 36.0 0.00 0.00 0.00 70 1011.0
20260509134035 65 106 22.0 31.0 0.00 0.00 0.00 70 1011.0
20260509133035 66 101 22.0 38.0 0.00 0.00 0.00 70 1011.1
20260509132015 66 99 24.0 36.0 0.00 0.00 0.00 70 1011.1
20260509131015 66 98 19.0 33.0 0.00 0.00 0.00 71 1011.2
20260509130015 66 95 25.0 37.0 0.00 0.00 0.00 70 1011.4
20260509125017 67 101 22.0 36.0 0.00 0.00 0.00 70 1011.3
20260509124015 67 95 24.0 36.0 0.00 0.00 0.00 69 1011.2
20260509123017 67 99 25.0 38.0 0.00 0.00 0.00 69 1011.2
20260509122017 68 108 25.0 33.0 0.00 0.00 0.00 68 1011.2
20260509121017 67 102 24.0 37.0 0.00 0.00 0.00 68 1011.2
20260509120017 67 96 27.0 37.0 0.00 0.00 0.00 68 1011.2
20260509115037 67 95 25.0 37.0 0.00 0.00 0.00 68 1011.3
20260509114017 67 101 21.0 32.0 0.00 0.00 0.00 70 1011.4
20260509113018 67 97 24.0 34.0 0.00 0.00 0.00 71 1011.6
20260509112022 67 95 23.0 38.0 0.00 0.00 0.00 72 1011.8
20260509111017 67 95 24.0 37.0 0.00 0.00 0.00 72 1011.9
20260509110017 66 95 22.0 33.0 0.00 0.00 0.00 72 1012.0
20260509105016 66 103 24.0 35.0 0.00 0.00 0.00 74 1012.1
20260509104017 66 100 23.0 34.0 0.00 0.00 0.00 75 1012.2
20260509103017 65 98 23.0 32.0 0.00 0.00 0.00 75 1012.2
20260509102037 65 94 19.0 28.0 0.00 0.00 0.00 76 1012.2
20260509101017 65 98 20.0 31.0 0.00 0.00 0.00 77 1012.2
20260509100016 65 95 21.0 29.0 0.00 0.00 0.00 77 1012.3
20260509095017 65 100 22.0 32.0 0.00 0.00 0.00 78 1012.3
20260509094021 65 95 17.0 28.0 0.00 0.00 0.00 79 1012.2
20260509093017 65 110 20.0 29.0 0.00 0.00 0.00 78 1012.4
20260509092016 65 101 19.0 28.0 0.00 0.00 0.00 79 1012.1
20260509091017 64 99 21.0 28.0 0.00 0.00 0.00 80 1012.1
20260509090017 64 95 19.0 31.0 0.00 0.00 0.00 81 1012.0
20260509085016 64 89 20.0 29.0 0.00 0.00 0.00 81 1012.1
20260509084037 64 104 17.0 28.0 0.00 0.00 0.00 82 1012.2
20260509083016 63 103 20.0 32.0 0.00 0.00 0.00 83 1012.2
20260509082016 63 101 20.0 32.0 0.00 0.00 0.00 84 1012.2
20260509081016 63 97 19.0 29.0 0.00 0.00 0.00 84 1012.3
20260509080016 63 103 19.0 31.0 0.00 0.00 0.00 84 1012.5
20260509075017 63 104 18.0 29.0 0.00 0.00 0.00 84 1012.6
20260509074036 62 108 17.0 23.0 0.00 0.00 0.00 86 1012.7
20260509073017 62 106 13.0 19.0 0.00 0.00 0.00 86 1013.0
20260509072017 61 100 15.0 25.0 0.00 0.00 0.00 86 1013.1
20260509071016 61 98 16.0 26.0 0.00 0.00 0.00 86 1013.2
20260509070016 61 100 14.0 29.0 0.00 0.00 0.00 86 1013.2
20260509065016 61 111 16.0 24.0 0.00 0.00 0.00 87 1013.4
20260509064017 61 110 15.0 25.0 0.00 0.00 0.00 87 1013.4
20260509063036 60 102 14.0 20.0 0.00 0.00 0.00 88 1013.2
20260509062016 61 107 12.0 20.0 0.00 0.00 0.00 87 1013.3
20260509061016 61 108 13.0 20.0 0.00 0.00 0.00 87 1013.4
20260509060016 61 102 14.0 21.0 0.00 0.00 0.00 87 1013.2
20260509055016 61 105 14.0 26.0 0.00 0.00 0.00 86 1013.0
20260509054016 60 95 15.0 29.0 0.00 0.00 0.00 86 1013.0
20260509053016 60 97 14.0 21.0 0.00 0.00 0.00 87 1013.0
20260509052036 60 100 13.0 20.0 0.00 0.00 0.00 88 1013.1
20260509051016 59 102 12.0 19.0 0.00 0.00 0.00 88 1013.0
20260509050016 59 106 12.0 20.0 0.00 0.00 0.00 88 1013.0
20260509045016 59 109 12.0 19.0 0.00 0.00 0.00 87 1013.0
20260509044116 59 109 13.0 20.0 0.00 0.00 0.00 88 1012.9
20260509043016 59 108 13.0 22.0 0.00 0.00 0.00 88 1012.9
20260509042016 59 103 15.0 22.0 0.00 0.00 0.00 87 1012.8
20260509041056 59 99 15.0 24.0 0.00 0.00 0.00 87 1012.7
20260509040016 59 105 13.0 19.0 0.00 0.00 0.00 88 1012.7
20260509035036 59 109 10.0 17.0 0.00 0.00 0.00 88 1012.9
20260509034036 59 109 9.0 16.0 0.00 0.00 0.00 88 1012.9
20260509033016 59 116 10.0 15.0 0.00 0.00 0.00 88 1013.0
20260509032016 59 115 9.0 16.0 0.00 0.00 0.00 88 1013.1
20260509031016 59 110 11.0 17.0 0.00 0.00 0.00 87 1013.0
20260509030015 59 111 12.0 18.0 0.00 0.00 0.00 87 1012.9
20260509025016 59 117 10.0 15.0 0.00 0.00 0.00 87 1013.1
20260509024015 59 114 12.0 17.0 0.00 0.00 0.00 88 1013.0
20260509023016 59 118 9.0 16.0 0.00 0.00 0.00 88 1013.0
20260509022015 60 110 12.0 17.0 0.00 0.00 0.00 87 1013.0
20260509021036 60 111 11.0 17.0 0.00 0.00 0.00 87 1013.0
20260509020015 60 107 13.0 19.0 0.00 0.00 0.00 86 1013.1
20260509015016 60 108 12.0 17.0 0.00 0.00 0.00 86 1013.2
20260509014015 60 109 12.0 17.0 0.00 0.00 0.00 86 1013.2
20260509013016 60 109 13.0 22.0 0.00 0.00 0.00 86 1013.3
20260509012015 60 111 12.0 19.0 0.00 0.00 0.00 86 1013.2
20260509011015 60 112 13.0 18.0 0.00 0.00 0.00 85 1013.3
20260509010015 60 112 12.0 19.0 0.00 0.00 0.00 85 1013.4